Regional Weather Roundup
Issued by NWS

Home | Current Version | Previous Version | Graphics & Text | Print | Product List | Glossary On
Versions: 1 2 3 4 5 6 7 8 9 10 11 12 13 14 15 16 17 18 19 20 21 22 23 24 25 26 27 28 29 30 31 32 33 34 35 36 37 38 39 40 41 42 43 44 45 46 47 48 49 50
941
ASUS44 KLIX 010805
RWRLA
LOUISIANA WEATHER ROUNDUP
NATIONAL WEATHER SERVICE NEW ORLEANS LA
300 AM CDT MON SEP 01 2014

NOTE: "FAIR" INDICATES FEW OR NO CLOUDS BELOW 12,000 FEET WITH NO
      SIGNIFICANT WEATHER AND/OR OBSTRUCTIONS TO VISIBILITY.
      SKY/WX - SKY CONDITION AND SIGNIFICANT WEATHER.
      TMP - AIR TEMPERATURE.    DP   - DEWPOINT TEMPERATURE.
      RH  - RELATIVE HUMIDITY.  PRES - PRESSURE.
      HX  - HEAT INDEX.         WCI  - WIND CHILL INDEX.

*  THESE STATIONS ARE NOT NWS OR FAA STATIONS AND ARE NOT UNDER
   NWS QUALITY CONTROL.

LAZ040-048-061>063-065-066-069-010900-
SOUTHEAST LOUISIANA

CITY           SKY/WX    TMP DP  RH WIND       PRES   REMARKS
N.O. AUDUBON     N/A     82  79  91 MISG        N/A
N.O. INTL ARPT PTCLDY    82  76  81 SE7       30.00F
N.O. LAKEFRONT CLEAR     81  77  88 SE7       30.01F
N.O. DOWNTOWN* FAIR      82  73  74 SE3       30.01F
SLIDELL        CLEAR     80  76  87 SE3       30.01F
BATON ROUGE    CLEAR     76  74  93 E5        30.01F
BOOTHVILLE     PTCLDY    83  78  85 SE7       30.01F
BELLE CHASSE   CLEAR     82  76  81 SE5       29.99F
BOGALUSA*        N/A     75  71  89 CALM      30.04S
GALLIANO*      NOT AVBL
NEW ROADS*     FAIR      77  76  96 SE3       30.01S
GONZALES*      FAIR      76  76 100 CALM      30.00S
HAMMOND*       CLEAR     73  72  94 CALM      30.03S
HOUMA*         CLEAR     78  73  83 CALM      29.99F
PORT FOURCHON* NOT AVBL

$$

LAZ041-044-053-054-010900-
SOUTHWEST LOUISIANA

CITY           SKY/WX    TMP DP  RH WIND       PRES   REMARKS
LAKE CHARLES   RAIN      78  74  87 SE3       29.97F
LAFAYETTE      MOCLDY    77  76  96 VRB3      29.99F
PATTERSON        N/A     79  77  94 CALM      30.01F
SALT POINT       N/A     85  78  80 SE8       29.98S HX  96
NEW IBERIA     PTCLDY    79  76  90 E6        29.99F
CHENAULT AIRPK PTCLDY    78  73  84 SE6       29.99S

$$

LAZ027-028-010900-
CENTRAL LOUISIANA

CITY           SKY/WX    TMP DP  RH WIND       PRES   REMARKS
FORT POLK      CLOUDY    76  75  97 SE7       29.98F
ALEXANDRIA INT CLEAR     75  73  93 SE5       29.98S
ALEXANDRIA     PTCLDY    74  71  91 SE3       30.00S

$$

LAZ001-002-010900-
NORTHWEST LOUISIANA

CITY           SKY/WX    TMP DP  RH WIND       PRES   REMARKS
SHREVEPORT     CLEAR     74  71  91 SE5       29.97S
BARKSDALE AFB  CLEAR     73  72  97 SE6       29.98S
DTN SHREVEPORT CLEAR     75  72  90 SE5       29.98R

$$

LAZ014-016-010900-
NORTHEAST LOUISIANA

CITY           SKY/WX    TMP DP  RH WIND       PRES   REMARKS
MONROE         PTCLDY    74  71  91 S3        30.00S
TALLULAH       CLEAR     76  73  91 S7        30.01S

$$




USA.gov is the U.S. government's official web portal to all federal, state and local government web resources and services.